• în Republica Moldova
  • Lista ţărilor
  • Pe 7 zile
  • Temperatura apei
  • Hartă satelitară
  • Meteo pe hartă
  • Widget-uri
  • user-avatar
    Intrare

    Meteo pe oră la Barcelona

    Astăzi, 24 Iunie, Luni

    Timp Temperatura Precipitaţii Vânt Presiune Umiditate
    00:00 +26°C° 0 mm 1 m/s 760 mmHg 93%
    01:00 +26°C° 0 mm 1 m/s 760 mmHg 93%
    02:00 +26°C° 0 mm 1 m/s 759 mmHg 93%
    03:00 +25°C° 0 mm 1 m/s 759 mmHg 93%
    04:00 +25°C° 0 mm 1 m/s 759 mmHg 93%
    05:00 +25°C° 0 mm 1 m/s 759 mmHg 93%
    06:00 +26°C° 0 mm 1 m/s 759 mmHg 89%
    07:00 +27°C° 0 mm 1 m/s 759 mmHg 86%
    08:00 +29°C° 0 mm 1 m/s 760 mmHg 81%
    09:00 +31°C° 0 mm 1 m/s 760 mmHg 73%
    10:00 +32°C° 0 mm 1 m/s 760 mmHg 65%
    11:00 +35°C° 0 mm 2 m/s 760 mmHg 57%
    12:00 +34°C° 0.5 mm 2 m/s 759 mmHg 62%
    13:00 +34°C° 0.5 mm 3 m/s 759 mmHg 66%
    14:00 +33°C° 0.5 mm 3 m/s 758 mmHg 71%
    15:00 +31°C° 0.9 mm 3 m/s 758 mmHg 75%
    16:00 +32°C° 0.9 mm 4 m/s 758 mmHg 79%
    17:00 +30°C° 0.9 mm 4 m/s 757 mmHg 83%
    18:00 +29°C° 0.4 mm 4 m/s 758 mmHg 86%
    19:00 +28°C° 0.4 mm 4 m/s 758 mmHg 88%
    20:00 +27°C° 0.4 mm 5 m/s 759 mmHg 91%
    21:00 +27°C° 0 mm 4 m/s 759 mmHg 91%
    22:00 +27°C° 0 mm 3 m/s 759 mmHg 92%
    23:00 +26°C° 0 mm 3 m/s 760 mmHg 93%

    Mâine, 25 Iunie, Marţi

    Timp Temperatura Precipitaţii Vânt Presiune Umiditate
    00:00 +26°C° 0 mm 2 m/s 759 mmHg 93%
    01:00 +26°C° 0 mm 2 m/s 759 mmHg 94%
    02:00 +25°C° 0 mm 1 m/s 759 mmHg 95%
    03:00 +25°C° 0 mm 1 m/s 759 mmHg 95%
    04:00 +25°C° 0 mm 1 m/s 759 mmHg 96%
    05:00 +25°C° 0 mm 1 m/s 759 mmHg 96%
    06:00 +26°C° 0 mm 1 m/s 759 mmHg 92%
    07:00 +27°C° 0 mm 1 m/s 759 mmHg 89%
    08:00 +27°C° 0 mm 1 m/s 760 mmHg 86%
    09:00 +29°C° 0 mm 1 m/s 760 mmHg 77%
    10:00 +31°C° 0 mm 1 m/s 760 mmHg 67%
    11:00 +33°C° 0 mm 1 m/s 760 mmHg 58%
    12:00 +34°C° 0 mm 2 m/s 759 mmHg 58%
    13:00 +34°C° 0 mm 3 m/s 759 mmHg 58%
    14:00 +35°C° 0 mm 3 m/s 758 mmHg 57%
    15:00 +34°C° 0 mm 4 m/s 758 mmHg 61%
    16:00 +33°C° 0 mm 4 m/s 757 mmHg 64%
    17:00 +32°C° 0 mm 4 m/s 757 mmHg 67%
    18:00 +30°C° 0 mm 5 m/s 757 mmHg 73%
    19:00 +29°C° 0 mm 5 m/s 758 mmHg 79%
    20:00 +27°C° 0 mm 6 m/s 758 mmHg 85%
    21:00 +27°C° 0 mm 5 m/s 759 mmHg 88%
    22:00 +26°C° 0 mm 4 m/s 759 mmHg 90%
    23:00 +26°C° 0 mm 4 m/s 760 mmHg 93%

    Poimâine, 26 Iunie, Miercuri

    Timp Temperatura Precipitaţii Vânt Presiune Umiditate
    00:00 +26°C° 0 mm 3 m/s 760 mmHg 94%
    01:00 +25°C° 0 mm 2 m/s 760 mmHg 94%
    02:00 +25°C° 0 mm 2 m/s 759 mmHg 95%
    03:00 +25°C° 0 mm 2 m/s 759 mmHg 95%
    04:00 +25°C° 0 mm 1 m/s 759 mmHg 94%
    05:00 +24°C° 0 mm 1 m/s 759 mmHg 94%
    06:00 +26°C° 0 mm 1 m/s 759 mmHg 89%
    07:00 +27°C° 0 mm 1 m/s 760 mmHg 83%
    08:00 +27°C° 0 mm 0 m/s 760 mmHg 78%
    09:00 +31°C° 0 mm 1 m/s 760 mmHg 70%
    10:00 +32°C° 0 mm 1 m/s 760 mmHg 63%
    11:00 +34°C° 0 mm 1 m/s 760 mmHg 56%
    12:00 +35°C° 0.1 mm 2 m/s 759 mmHg 59%
    13:00 +34°C° 0.1 mm 3 m/s 759 mmHg 62%
    14:00 +34°C° 0.1 mm 3 m/s 759 mmHg 64%
    15:00 +33°C° 0.1 mm 4 m/s 758 mmHg 65%
    16:00 +32°C° 0.1 mm 5 m/s 757 mmHg 67%
    17:00 +32°C° 0.1 mm 5 m/s 757 mmHg 68%
    18:00 +30°C° 0 mm 5 m/s 757 mmHg 73%
    19:00 +28°C° 0 mm 5 m/s 758 mmHg 79%
    20:00 +27°C° 0 mm 5 m/s 758 mmHg 84%
    21:00 +27°C° 0 mm 4 m/s 759 mmHg 86%
    22:00 +26°C° 0 mm 4 m/s 759 mmHg 88%
    23:00 +26°C° 0 mm 3 m/s 760 mmHg 89%

    27 Iunie, Joi

    Timp Temperatura Precipitaţii Vânt Presiune Umiditate
    00:00 +26°C° 0 mm 3 m/s 759 mmHg 90%
    01:00 +25°C° 0 mm 3 m/s 759 mmHg 91%
    02:00 +25°C° 0 mm 2 m/s 759 mmHg 92%
    03:00 +25°C° 0 mm 2 m/s 759 mmHg 92%
    04:00 +24°C° 0 mm 1 m/s 759 mmHg 92%
    05:00 +22°C° 0 mm 0 m/s 758 mmHg 92%
    06:00 +25°C° 0 mm 1 m/s 759 mmHg 87%
    07:00 +27°C° 0 mm 1 m/s 759 mmHg 82%
    08:00 +28°C° 0 mm 1 m/s 759 mmHg 76%
    09:00 +30°C° 0 mm 1 m/s 760 mmHg 68%
    10:00 +33°C° 0 mm 1 m/s 760 mmHg 59%
    11:00 +36°C° 0 mm 2 m/s 760 mmHg 50%
    12:00 +36°C° 0 mm 2 m/s 759 mmHg 49%
    13:00 +36°C° 0 mm 2 m/s 759 mmHg 48%
    14:00 +36°C° 0 mm 3 m/s 758 mmHg 46%
    15:00 +35°C° 0 mm 4 m/s 757 mmHg 53%
    16:00 +33°C° 0 mm 4 m/s 757 mmHg 59%
    17:00 +32°C° 0 mm 5 m/s 756 mmHg 65%
    18:00 +29°C° 0.1 mm 5 m/s 757 mmHg 72%
    19:00 +28°C° 0.1 mm 5 m/s 757 mmHg 78%
    20:00 +27°C° 0.1 mm 5 m/s 758 mmHg 85%
    21:00 +27°C° 0 mm 4 m/s 759 mmHg 86%
    22:00 +27°C° 0 mm 4 m/s 759 mmHg 87%
    23:00 +26°C° 0 mm 3 m/s 760 mmHg 89%

    28 Iunie, Vineri

    Timp Temperatura Precipitaţii Vânt Presiune Umiditate
    00:00 +26°C° 0 mm 2 m/s 759 mmHg 88%
    01:00 +26°C° 0 mm 2 m/s 759 mmHg 87%
    02:00 +26°C° 0 mm 1 m/s 759 mmHg 87%
    03:00 +25°C° 0.5 mm 2 m/s 759 mmHg 89%
    04:00 +25°C° 0.5 mm 2 m/s 759 mmHg 90%
    05:00 +24°C° 0.5 mm 2 m/s 759 mmHg 92%
    06:00 +25°C° 0.3 mm 2 m/s 759 mmHg 90%
    07:00 +26°C° 0.3 mm 1 m/s 759 mmHg 88%
    08:00 +27°C° 0.3 mm 1 m/s 760 mmHg 86%
    09:00 +29°C° 0.1 mm 1 m/s 760 mmHg 78%
    10:00 +30°C° 0.1 mm 2 m/s 760 mmHg 71%
    11:00 +32°C° 0.1 mm 2 m/s 760 mmHg 63%
    12:00 +32°C° 0.2 mm 2 m/s 760 mmHg 65%
    13:00 +31°C° 0.2 mm 2 m/s 759 mmHg 67%
    14:00 +31°C° 0.2 mm 3 m/s 758 mmHg 69%
    15:00 +31°C° 0.8 mm 3 m/s 758 mmHg 72%
    16:00 +30°C° 0.8 mm 3 m/s 758 mmHg 76%
    17:00 +30°C° 0.8 mm 3 m/s 757 mmHg 79%
    18:00 +29°C° 0.3 mm 3 m/s 758 mmHg 83%
    19:00 +28°C° 0.3 mm 4 m/s 758 mmHg 87%
    20:00 +27°C° 0.3 mm 4 m/s 759 mmHg 91%
    21:00 +27°C° 0 mm 3 m/s 759 mmHg 92%
    22:00 +26°C° 0 mm 2 m/s 760 mmHg 93%
    23:00 +26°C° 0 mm 1 m/s 760 mmHg 93%

    29 Iunie, Sâmbătă

    Timp Temperatura Precipitaţii Vânt Presiune Umiditate
    00:00 +26°C° 0 mm 1 m/s 760 mmHg 94%
    01:00 +25°C° 0 mm 1 m/s 759 mmHg 95%
    02:00 +25°C° 0 mm 1 m/s 759 mmHg 96%
    03:00 +25°C° 0 mm 1 m/s 758 mmHg 95%
    04:00 +25°C° 0 mm 1 m/s 758 mmHg 95%
    05:00 +25°C° 0 mm 1 m/s 758 mmHg 95%
    06:00 +26°C° 0 mm 1 m/s 759 mmHg 90%
    07:00 +26°C° 0 mm 0 m/s 759 mmHg 85%
    08:00 +27°C° 0 mm 0 m/s 759 mmHg 79%
    09:00 +29°C° 0 mm 0 m/s 759 mmHg 72%
    10:00 +33°C° 0 mm 1 m/s 759 mmHg 65%
    11:00 +35°C° 0 mm 1 m/s 759 mmHg 58%
    12:00 +35°C° 0.4 mm 2 m/s 759 mmHg 61%
    13:00 +35°C° 0.4 mm 3 m/s 758 mmHg 64%
    14:00 +34°C° 0.4 mm 4 m/s 758 mmHg 67%
    15:00 +33°C° 0.2 mm 4 m/s 757 mmHg 68%
    16:00 +33°C° 0.2 mm 4 m/s 757 mmHg 69%
    17:00 +33°C° 0.2 mm 4 m/s 757 mmHg 70%
    18:00 +30°C° 0 mm 4 m/s 757 mmHg 76%
    19:00 +29°C° 0 mm 4 m/s 758 mmHg 82%
    20:00 +27°C° 0 mm 4 m/s 758 mmHg 88%
    21:00 +27°C° 0 mm 4 m/s 759 mmHg 89%
    22:00 +26°C° 0 mm 4 m/s 759 mmHg 89%
    23:00 +26°C° 0 mm 3 m/s 760 mmHg 90%
    Arată mai mult